Location: Ash Shall?l al Awwal
(24.0167°N, 32.8667°E)
Time: 23:10:22
(UTC+00:00)

Cosmos 2242 Rocket - Visible Passes

Search period start: 24 June 2021 00:00
Search period end: 04 July 2021 00:00
Orbit: 619 x 651 km, 82.5° (Epoch: 24 June)

Date Brightness Start Highest point End Pass type
(mag) Time Alt. Az. Time Alt. Az. Time Alt. Az.
24 Jun 6.2 02:25:59 10° NNE 02:29:36 24° E 02:33:10 10° SE visible
27 Jun 6.4 01:55:14 10° NE 01:58:23 19° E 02:01:31 10° SE visible
28 Jun 4.8 02:16:33 10° N 02:20:48 46° E 02:25:01 10° SSE visible
30 Jun 6.5 01:24:39 10° NE 01:27:11 15° E 01:29:41 10° ESE visible
01 Jul 5.2 01:45:34 10° NNE 01:49:37 35° E 01:53:38 10° SSE visible
02 Jul 3.5 02:07:31 10° N 02:11:57 89° W 02:16:20 10° S visible
03 Jul 6.6 00:54:28 10° ENE 00:55:57 11° ENE 00:57:26 10° E visible
03 Jul 4.2 02:30:10 10° NNW 02:34:09 34° W 02:38:08 10° SSW visible
